Libertyville, IL

8:03 AM CDT on August 25, 2016 (GMT -0500)
Chicago Executive

Weather History for KPWK - May, 2013

Change the Weather History Date:

Tuesday, May 28, 2013

  Actual Average Record
Temperature  
Mean Temperature 66 °F 62 °F  
Max Temperature 77 °F 73 °F 93 °F (2012)
Min Temperature 54 °F 51 °F 42 °F (2008)
Degree Days  
Heating Degree Days 0 5  
Month to date heating degree days 225 233  
Since 1 July heating degree days 6315 6346  
Cooling Degree Days 1 2  
Month to date cooling degree days 45 31  
Year to date cooling degree days 54 35  
Growing Degree Days 14 (Base 50)    
Moisture  
Dew Point 60 °F    
Average Humidity 89    
Maximum Humidity 100    
Minimum Humidity 71    
Precipitation  
Precipitation 0.28 in 0.11 in 0.95 in (2003)
Month to date precipitation 2.91 3.38  
Year to date precipitation 9.36 11.18  
Sea Level Pressure  
Sea Level Pressure 29.82 in    
Wind  
Wind Speed 7 mph (South)    
Max Wind Speed 22 mph    
Max Gust Speed 30 mph    
Visibility 6 miles    
Events Rain , Thunderstorm    
T = Trace of Precipitation, MM = Missing Value Source: NWS Daily Summary

Daily Weather History Graph

Daily Weather History Graph

Search for Another Location

Airport or City:

Trip Planner

Search our weather history database for the weather conditions in past years. The results will help you decide how hot, cold, wet, or windy it might be!

Date:

Astronomy

May. 28, 2013 Rise Set
Actual Time 5:20 AM CDT 8:18 PM CDT
Civil Twilight 4:46 AM CDT 8:51 PM CDT
Nautical Twilight 4:04 AM CDT 9:34 PM CDT
Astronomical Twilight 3:14 AM CDT 10:24 PM CDT
Moon 11:39 PM CDT (5/28) 9:09 AM CDT (5/28)
Length of Visible Light 16h 04m
Length of Day
14h 58m
Waning Gibbous, 82% of the Moon is Illuminated
May 28
Waning Gibbous
May 31
Last Quarter
Jun 8
New
Jun 16
First Quarter
Jun 23
Full

Hourly Weather History & Observations

Time (CDT) Temp. Dew Point Humidity Pressure Visibility Wind Dir Wind Speed Gust Speed Precip Events Conditions
12:04 AM 55.4 °F 53.6 °F 94% 29.89 in 5.0 mi East 3.5 mph - N/A Thunderstorm Overcast
12:28 AM 53.6 °F 51.8 °F 94% 29.89 in 4.0 mi ESE 5.8 mph - 0.00 in Rain Light Rain
12:39 AM 53.6 °F 53.6 °F 100% 29.89 in 3.0 mi Calm Calm - 0.00 in Rain , Thunderstorm Light Rain
12:52 AM 54.0 °F 52.0 °F 93% 29.89 in 2.0 mi East 3.5 mph - 0.03 in Rain Rain
1:01 AM 53.6 °F 51.8 °F 94% 29.89 in 1.5 mi ESE 3.5 mph - 0.06 in Rain Heavy Rain
1:11 AM 53.6 °F 53.6 °F 100% 29.88 in 2.5 mi SE 3.5 mph - 0.10 in Rain Rain
1:31 AM 53.6 °F 53.6 °F 100% 29.86 in 2.5 mi ENE 3.5 mph - 0.14 in Rain , Thunderstorm Thunderstorms and Rain
1:40 AM 53.6 °F 53.6 °F 100% 29.85 in 3.0 mi Calm Calm - 0.15 in Rain Light Rain
1:52 AM 54.0 °F 53.1 °F 97% 29.86 in 3.0 mi Calm Calm - 0.15 in   Overcast
2:19 AM 53.6 °F 53.6 °F 100% 29.86 in 3.0 mi NE 3.5 mph - 0.00 in Rain , Thunderstorm Light Rain
2:27 AM 53.6 °F 53.6 °F 100% 29.85 in 1.8 mi Calm Calm - 0.08 in Rain , Thunderstorm Heavy Thunderstorms and Rain
2:41 AM 53.6 °F 53.6 °F 100% 29.84 in 3.0 mi SE 5.8 mph - 0.16 in Rain , Thunderstorm Light Thunderstorms and Rain
2:46 AM 53.6 °F 53.6 °F 100% 29.83 in 4.0 mi ESE 4.6 mph - 0.17 in Rain , Thunderstorm Light Thunderstorms and Rain
2:52 AM 55.0 °F 53.1 °F 93% 29.83 in 4.0 mi Calm Calm - 0.17 in Rain , Thunderstorm Light Thunderstorms and Rain
3:13 AM 55.4 °F 53.6 °F 94% 29.83 in 4.0 mi Calm Calm - 0.00 in   Overcast
3:21 AM 55.4 °F 53.6 °F 94% 29.82 in 4.0 mi Calm Calm - 0.00 in   Overcast
3:52 AM 55.9 °F 55.0 °F 97% 29.82 in 3.0 mi Calm Calm - 0.00 in   Overcast
4:40 AM 55.4 °F 55.4 °F 100% 29.82 in 2.5 mi Calm Calm - N/A   Scattered Clouds
4:52 AM 55.9 °F 55.0 °F 97% 29.82 in 2.5 mi Calm Calm - N/A   Partly Cloudy
5:39 AM 57.2 °F 55.4 °F 94% 29.81 in 1.5 mi Calm Calm - N/A   Partly Cloudy
5:52 AM 57.0 °F 55.9 °F 96% 29.81 in 1.5 mi Calm Calm - N/A   Mostly Cloudy
6:09 AM 57.2 °F 55.4 °F 94% 29.81 in 2.0 mi Calm Calm - N/A   Mostly Cloudy
6:29 AM 62.6 °F 60.8 °F 94% 29.81 in 4.0 mi South 8.1 mph - N/A   Mostly Cloudy
6:52 AM 64.9 °F 62.1 °F 90% 29.81 in 7.0 mi South 11.5 mph - N/A   Partly Cloudy
7:52 AM 66.9 °F 63.0 °F 87% 29.77 in 7.0 mi South 8.1 mph - N/A   Clear
8:50 AM 66.2 °F 64.4 °F 94% 29.80 in 6.0 mi West 3.5 mph - 0.00 in Rain Light Rain
8:52 AM 66.9 °F 64.0 °F 90% 29.79 in 6.0 mi Calm Calm - 0.00 in Rain Light Rain
9:43 AM 68.0 °F 64.4 °F 88% 29.81 in 6.0 mi Calm Calm - 0.01 in   Overcast
9:52 AM 68.0 °F 64.9 °F 90% 29.80 in 6.0 mi SW 4.6 mph - 0.01 in   Overcast
10:52 AM 72.0 °F 66.0 °F 81% 29.79 in 8.0 mi South 5.8 mph - N/A   Mostly Cloudy
11:34 AM 73.4 °F 64.4 °F 73% 29.79 in 10.0 mi SSW 10.4 mph - N/A   Mostly Cloudy
11:42 AM 73.4 °F 64.4 °F 73% 29.79 in 10.0 mi SW 9.2 mph - N/A   Scattered Clouds
11:52 AM 75.0 °F 64.9 °F 71% 29.78 in 10.0 mi SW 10.4 mph - N/A   Partly Cloudy
12:52 PM 75.0 °F 64.9 °F 71% 29.78 in 10.0 mi SSW 12.7 mph 24.2 mph N/A   Mostly Cloudy
1:52 PM 75.9 °F 66.0 °F 71% 29.78 in 8.0 mi SW 9.2 mph - N/A   Overcast
2:52 PM 75.0 °F 66.9 °F 76% 29.78 in 9.0 mi SSW 9.2 mph - N/A   Overcast
3:52 PM 75.0 °F 68.0 °F 79% 29.77 in 8.0 mi South 10.4 mph - N/A   Overcast
4:52 PM 75.9 °F 68.0 °F 76% 29.77 in 9.0 mi SSW 12.7 mph - 0.00 in   Overcast
5:52 PM 75.9 °F 66.0 °F 71% 29.77 in 10.0 mi SSW 11.5 mph 21.9 mph N/A   Mostly Cloudy
6:52 PM 75.0 °F 66.9 °F 76% 29.75 in 10.0 mi SSW 10.4 mph - N/A   Overcast
7:52 PM 73.9 °F 66.9 °F 79% 29.75 in 8.0 mi SSW 8.1 mph - N/A   Overcast
8:30 PM 73.4 °F 68.0 °F 83% 29.78 in 9.0 mi South 12.7 mph 20.7 mph N/A Thunderstorm Thunderstorm
8:52 PM 72.0 °F 69.1 °F 91% 29.78 in 4.0 mi South 13.8 mph - 0.00 in Rain , Thunderstorm Light Rain
9:03 PM 71.6 °F 69.8 °F 94% 29.77 in 4.0 mi South 10.4 mph - 0.00 in Rain , Thunderstorm Light Thunderstorms and Rain
9:41 PM 71.6 °F 68.0 °F 88% 29.74 in 8.0 mi SE 9.2 mph - 0.01 in Thunderstorm Scattered Clouds
9:49 PM 69.8 °F 66.2 °F 88% 29.83 in 9.0 mi West 17.3 mph 29.9 mph 0.01 in Thunderstorm Scattered Clouds
9:52 PM 71.1 °F 64.9 °F 81% 29.83 in 9.0 mi WSW 8.1 mph 29.9 mph 0.01 in Thunderstorm Scattered Clouds
9:56 PM 71.6 °F 66.2 °F 83% 29.83 in 10.0 mi Variable 5.8 mph 29.9 mph N/A   Scattered Clouds
10:52 PM 68.0 °F 64.0 °F 87% 29.83 in 10.0 mi South 11.5 mph - N/A   Clear
11:52 PM 66.9 °F 63.0 °F 87% 29.84 in 10.0 mi Calm Calm - N/A   Clear